CW0005 Weather Reports


time (UTC)temp
C
wind
direction
speed
KPH
gust
KPH
rain 1hr
cm
rain 24hr
cm
rain mn
cm
humidity
%
barometer
mb
20260902021521 28 135 0.0 1.6 0.00 0.00 0.00 66 1012.9
20260902020032 28 135 0.0 0.0 0.00 0.00 0.00 65 1012.8
20260902014540 29 135 0.0 3.2 0.00 0.00 0.00 64 1012.6
20260902013014 29 135 0.0 3.2 0.00 0.00 0.00 63 1012.4
20260902011511 30 135 0.0 1.6 0.00 0.00 0.00 62 1012.3
20260902010027 30 135 0.0 3.2 0.00 0.00 0.00 61 1012.3
20260902004531 31 135 0.0 1.6 0.00 0.00 0.00 60 1012.3
20260902003032 31 135 0.0 6.4 0.00 0.00 0.00 59 1012.2
20260902001527 32 135 0.0 1.6 0.00 0.00 0.00 58 1012.4
20260902000032 32 135 0.0 6.4 0.00 0.00 0.00 56 1012.4
20260901234536 33 135 0.0 0.0 0.00 0.00 0.00 54 1012.4
20260901233014 33 344 0.0 3.2 0.00 0.00 0.00 53 1012.4
20260901231533 34 319 0.0 8.0 0.00 0.00 0.00 50 1012.4
20260901230033 35 300 0.0 4.8 0.00 0.00 0.00 50 1012.4
20260901224518 35 332 1.6 4.8 0.00 0.00 0.00 47 1012.4
20260901223003 35 304 1.6 6.4 0.00 0.00 0.00 47 1012.7
20260901221505 35 169 1.6 8.0 0.00 0.00 0.00 46 1012.7
20260901220002 36 175 0.0 9.7 0.00 0.00 0.00 47 1012.7
20260901214503 36 47 0.0 6.4 0.00 0.00 0.00 51 1012.8
20260901213018 36 59 1.6 9.7 0.00 0.00 0.00 46 1013.0
20260901211502 36 26 1.6 14.5 0.00 0.00 0.00 49 1013.1
20260901210014 36 242 0.0 3.2 0.00 0.00 0.00 50 1013.2
20260901204510 35 338 0.0 6.4 0.00 0.00 0.00 47 1013.2
20260901203009 35 135 0.0 0.0 0.00 0.00 0.00 50 1013.2
20260901201516 35 135 0.0 9.7 0.00 0.00 0.00 51 1013.5
20260901200003 35 192 0.0 6.4 0.00 0.00 0.00 54 1013.6
20260901194509 35 135 0.0 3.2 0.00 0.00 0.00 50 1013.9
20260901193014 35 135 0.0 9.7 0.00 0.00 0.00 53 1013.9
20260901191522 35 135 0.0 8.0 0.00 0.00 0.00 52 1014.1
20260901190013 34 295 0.0 9.7 0.00 0.00 0.00 54 1014.3
20260901184512 34 314 0.0 4.8 0.00 0.00 0.00 54 1014.3
20260901183009 33 59 1.6 8.0 0.00 0.00 0.00 53 1014.5
20260901181519 33 45 0.0 0.0 0.00 0.00 0.00 54 1014.5
20260901180023 32 40 0.0 9.7 0.00 0.00 0.00 55 1014.7
20260901174529 32 337 3.2 12.9 0.00 0.00 0.00 55 1014.9
20260901173025 31 319 0.0 4.8 0.00 0.00 0.00 60 1015.0
20260901171511 31 260 1.6 8.0 0.00 0.00 0.00 60 1015.0
20260901170018 30 40 1.6 9.7 0.00 0.00 0.00 66 1015.1
20260901164513 30 348 0.0 4.8 0.00 0.00 0.00 65 1015.1
20260901163012 30 308 0.0 4.8 0.00 0.00 0.00 66 1015.1
20260901161537 28 314 1.6 4.8 0.00 0.00 0.00 69 1015.2
20260901160032 28 342 0.0 4.8 0.00 0.00 0.00 72 1015.1
20260901154524 27 29 1.6 6.4 0.00 0.00 0.00 76 1014.9
20260901153027 27 135 0.0 6.4 0.00 0.00 0.00 79 1015.1
20260901151525 26 135 0.0 0.0 0.00 0.00 0.00 83 1015.0
20260901150022 25 135 0.0 0.0 0.00 0.00 0.00 88 1014.9
20260901144518 24 135 0.0 0.0 0.00 0.00 0.00 92 1014.9
20260901143024 24 135 0.0 0.0 0.00 0.00 0.00 94 1015.0
20260901141527 23 135 0.0 0.0 0.00 0.00 0.00 94 1015.1
20260901140026 23 135 0.0 0.0 0.00 0.00 0.00 95 1015.2
20260901134543 23 135 0.0 0.0 0.00 0.00 0.00 95 1015.2
20260901133003 23 135 0.0 0.0 0.00 0.00 0.00 95 1015.2
20260901131504 23 135 0.0 0.0 0.00 0.00 0.00 95 1015.2
20260901130006 23 135 0.0 0.0 0.00 0.00 0.00 95 1015.1
20260901124511 23 135 0.0 0.0 0.00 0.00 0.00 95 1014.9
20260901123016 23 135 0.0 0.0 0.00 0.00 0.00 95 1014.9
20260901121513 23 135 0.0 0.0 0.00 0.00 0.00 94 1014.9
20260901120005 23 135 0.0 0.0 0.00 0.00 0.00 94 1014.9
20260901114508 23 135 0.0 0.0 0.00 0.00 0.00 94 1014.8
20260901113016 23 135 0.0 0.0 0.00 0.00 0.00 94 1014.7
20260901111524 23 135 0.0 0.0 0.00 0.00 0.00 94 1014.7
20260901110028 23 135 0.0 0.0 0.00 0.00 0.00 94 1014.7
20260901104525 23 135 0.0 0.0 0.00 0.00 0.00 93 1014.6
20260901103011 23 135 0.0 0.0 0.00 0.00 0.00 93 1014.8
20260901101516 23 135 0.0 0.0 0.00 0.00 0.00 93 1014.7
20260901100014 23 135 0.0 0.0 0.00 0.00 0.00 93 1014.6
20260901094511 23 135 0.0 0.0 0.00 0.00 0.00 93 1014.6
20260901093017 23 135 0.0 0.0 0.00 0.00 0.00 93 1014.5
20260901091516 23 135 0.0 0.0 0.00 0.00 0.00 92 1014.7
20260901090022 23 135 0.0 0.0 0.00 0.00 0.00 92 1014.7
20260901084531 23 135 0.0 0.0 0.00 0.00 0.00 92 1015.0
20260901083021 24 135 0.0 0.0 0.00 0.00 0.00 92 1014.9
20260901081512 24 135 0.0 0.0 0.00 0.00 0.00 91 1014.9
20260901080017 24 135 0.0 0.0 0.00 0.00 0.00 91 1014.8
20260901074512 24 135 0.0 0.0 0.00 0.00 0.00 91 1014.9
20260901073032 24 135 0.0 0.0 0.00 0.00 0.00 91 1014.7
20260901071524 24 135 0.0 0.0 0.00 0.00 0.00 91 1014.7
20260901070017 24 135 0.0 0.0 0.00 0.00 0.00 90 1014.9
20260901064527 25 135 0.0 0.0 0.00 0.00 0.00 91 1014.8
20260901063024 25 135 0.0 0.0 0.00 0.00 0.00 90 1015.0
20260901061524 25 135 0.0 0.0 0.00 0.00 0.00 90 1015.1
20260901060017 25 135 0.0 0.0 0.00 0.00 0.00 90 1015.2
20260901054517 25 135 0.0 0.0 0.00 0.00 0.00 89 1015.0
20260901053036 25 135 0.0 0.0 0.00 0.00 0.00 88 1015.0
20260901051527 25 135 0.0 0.0 0.00 0.00 0.00 88 1014.9
20260901050029 25 135 0.0 0.0 0.00 0.00 0.00 87 1014.7
20260901044531 25 135 0.0 0.0 0.00 0.00 0.00 86 1014.6
20260901043034 25 135 0.0 0.0 0.00 0.00 0.00 86 1014.4
20260901041523 25 135 0.0 0.0 0.00 0.00 0.00 86 1014.4
20260901040020 26 135 0.0 0.0 0.00 0.00 0.00 86 1014.3
20260901034529 26 135 0.0 0.0 0.00 0.00 0.00 85 1014.3
20260901033038 26 135 0.0 0.0 0.00 0.00 0.00 84 1014.3
20260901031526 26 135 0.0 0.0 0.00 0.00 0.00 83 1014.3
20260901030029 27 135 0.0 0.0 0.00 0.00 0.00 83 1014.3
20260901024528 27 135 0.0 0.0 0.00 0.00 0.00 82 1014.3
20260901023027 27 135 0.0 0.0 0.00 0.00 0.00 80 1014.2